FW8819 Weather Reports


time (UTC)temp
C
wind
direction
speed
KPH
gust
KPH
rain 1hr
cm
rain 24hr
cm
rain mn
cm
humidity
%
barometer
mb
20260906221545 29 167 16.1 27.4 0.00 0.00 0.00 29 1018.9
20260906221019 29 203 16.1 27.4 0.00 0.00 0.00 29 1018.9
20260906220518 30 217 12.9 29.0 0.00 0.00 0.00 28 1019.1
20260906220114 30 192 16.1 29.0 0.00 0.00 0.00 27 1019.1
20260906215524 30 221 19.3 29.0 0.00 0.00 0.00 28 1019.1
20260906215021 29 225 12.9 22.5 0.00 0.00 0.00 29 1019.2
20260906214539 28 169 11.3 29.0 0.00 0.00 0.00 32 1019.3
20260906214021 28 125 12.9 29.0 0.00 0.00 0.00 32 1019.4
20260906213520 28 117 16.1 32.2 0.00 0.00 0.00 35 1019.5
20260906213048 28 128 19.3 32.2 0.00 0.00 0.00 33 1019.6
20260906212519 28 89 14.5 27.4 0.00 0.00 0.00 31 1019.6
20260906212020 28 107 9.7 27.4 0.00 0.00 0.00 33 1019.6
20260906211541 28 99 9.7 27.4 0.00 0.00 0.00 31 1019.7
20260906211017 28 174 14.5 37.0 0.00 0.00 0.00 31 1019.9
20260906210526 29 165 22.5 37.0 0.00 0.00 0.00 32 1020.0
20260906210054 30 149 14.5 30.6 0.00 0.00 0.00 31 1019.7
20260906205518 29 94 14.5 33.8 0.00 0.00 0.00 32 1019.9
20260906205019 28 99 17.7 33.8 0.00 0.00 0.00 32 1020.0
20260906204538 28 91 12.9 25.7 0.00 0.00 0.00 33 1020.0
20260906204019 28 89 14.5 32.2 0.00 0.00 0.00 33 1020.1
20260906203519 28 101 17.7 32.2 0.00 0.00 0.00 32 1020.2
20260906203041 28 91 14.5 32.2 0.00 0.00 0.00 32 1020.3
20260906202521 28 90 11.3 19.3 0.00 0.00 0.00 31 1020.3
20260906202020 28 100 6.4 25.7 0.00 0.00 0.00 32 1020.3
20260906201539 28 85 9.7 25.7 0.00 0.00 0.00 31 1020.5
20260906201020 28 127 14.5 25.7 0.00 0.00 0.00 32 1020.6
20260906200521 28 124 11.3 22.5 0.00 0.00 0.00 31 1020.6
20260906200048 28 80 12.9 33.8 0.00 0.00 0.00 31 1020.6
20260906195518 28 113 14.5 33.8 0.00 0.00 0.00 30 1020.7
20260906195021 28 140 20.9 33.8 0.00 0.00 0.00 31 1020.7
20260906194547 28 121 16.1 32.2 0.00 0.00 0.00 31 1020.7
20260906194020 28 161 17.7 32.2 0.00 0.00 0.00 31 1020.8
20260906193518 28 94 9.7 25.7 0.00 0.00 0.00 32 1020.8
20260906193038 28 111 12.9 27.4 0.00 0.00 0.00 31 1021.0
20260906192519 27 146 14.5 27.4 0.00 0.00 0.00 32 1021.0
20260906192018 27 69 8.0 24.1 0.00 0.00 0.00 31 1021.0
20260906191540 27 128 11.3 24.1 0.00 0.00 0.00 31 1021.1
20260906191019 28 94 12.9 24.1 0.00 0.00 0.00 31 1021.2
20260906190517 28 112 9.7 24.1 0.00 0.00 0.00 30 1021.2
20260906190040 28 42 14.5 22.5 0.00 0.00 0.00 32 1021.3
20260906185519 28 36 12.9 24.1 0.00 0.00 0.00 32 1021.6
20260906185019 28 123 14.5 24.1 0.00 0.00 0.00 30 1021.6
20260906184540 28 85 9.7 19.3 0.00 0.00 0.00 33 1021.7
20260906184019 28 124 6.4 20.9 0.00 0.00 0.00 32 1021.8
20260906183524 28 95 12.9 22.5 0.00 0.00 0.00 30 1022.1
20260906183041 28 160 11.3 22.5 0.00 0.00 0.00 31 1022.2
20260906182522 28 72 8.0 22.5 0.00 0.00 0.00 33 1022.3
20260906182021 27 72 9.7 20.9 0.00 0.00 0.00 33 1022.4
20260906181543 27 99 9.7 16.1 0.00 0.00 0.00 33 1022.5
20260906181019 27 46 3.2 17.7 0.00 0.00 0.00 32 1022.6
20260906180519 27 122 8.0 17.7 0.00 0.00 0.00 32 1022.8
20260906180042 27 90 8.0 14.5 0.00 0.00 0.00 32 1022.9
20260906175519 28 124 3.2 14.5 0.00 0.00 0.00 32 1023.0
20260906175025 28 120 9.7 16.1 0.00 0.00 0.00 30 1023.1
20260906174542 29 219 3.2 16.1 0.00 0.00 0.00 30 1023.2
20260906174021 28 166 8.0 16.1 0.00 0.00 0.00 30 1023.4
20260906173520 28 229 1.6 9.7 0.00 0.00 0.00 29 1023.4
20260906173038 28 0 3.2 8.0 0.00 0.00 0.00 29 1023.5
20260906172521 28 281 4.8 14.5 0.00 0.00 0.00 29 1023.6
20260906172020 27 218 4.8 14.5 0.00 0.00 0.00 31 1023.7
20260906171538 26 323 3.2 9.7 0.00 0.00 0.00 32 1023.8
20260906171017 26 72 1.6 8.0 0.00 0.00 0.00 34 1023.8
20260906170525 26 314 0.0 9.7 0.00 0.00 0.00 34 1023.9
20260906170049 26 113 6.4 9.7 0.00 0.00 0.00 34 1023.9
20260906165517 26 61 1.6 11.3 0.00 0.00 0.00 35 1024.0
20260906165022 25 187 3.2 17.7 0.00 0.00 0.00 37 1023.9
20260906164544 24 63 6.4 17.7 0.00 0.00 0.00 38 1024.0
20260906164020 23 349 4.8 12.9 0.00 0.00 0.00 41 1024.0
20260906163520 23 359 4.8 17.7 0.00 0.00 0.00 42 1024.1
20260906163049 23 53 6.4 17.7 0.00 0.00 0.00 43 1024.1
20260906162520 23 55 6.4 11.3 0.00 0.00 0.00 44 1024.1
20260906162019 23 347 3.2 11.3 0.00 0.00 0.00 44 1024.2
20260906161540 23 10 1.6 9.7 0.00 0.00 0.00 45 1024.2
20260906161019 23 23 1.6 9.7 0.00 0.00 0.00 44 1024.3
20260906160519 22 359 6.4 9.7 0.00 0.00 0.00 45 1024.3
20260906160048 22 90 4.8 8.0 0.00 0.00 0.00 44 1024.2
20260906155524 23 297 3.2 6.4 0.00 0.00 0.00 44 1024.2
20260906155020 23 10 1.6 6.4 0.00 0.00 0.00 44 1024.2
20260906154537 22 333 1.6 6.4 0.00 0.00 0.00 45 1024.1
20260906154021 22 4 3.2 8.0 0.00 0.00 0.00 45 1024.1
20260906153520 22 360 3.2 8.0 0.00 0.00 0.00 45 1024.0
20260906153043 22 345 3.2 8.0 0.00 0.00 0.00 45 1024.1
20260906152522 22 307 1.6 4.8 0.00 0.00 0.00 48 1024.2
20260906152020 21 0 1.6 4.8 0.00 0.00 0.00 48 1024.0
20260906151540 21 0 1.6 6.4 0.00 0.00 0.00 49 1024.1
20260906151019 21 0 0.0 6.4 0.00 0.00 0.00 51 1024.1
20260906150519 21 8 0.0 4.8 0.00 0.00 0.00 52 1024.3
20260906150052 20 30 0.0 6.4 0.00 0.00 0.00 53 1024.3
20260906145520 20 4 1.6 8.0 0.00 0.00 0.00 58 1024.3
20260906145020 18 1 1.6 8.0 0.00 0.00 0.00 61 1024.3
20260906144556 18 6 3.2 8.0 0.00 0.00 0.00 64 1024.3
20260906144020 18 49 3.2 6.4 0.00 0.00 0.00 65 1024.2
20260906143518 17 77 3.2 6.4 0.00 0.00 0.00 66 1024.3
20260906143039 17 49 1.6 6.4 0.00 0.00 0.00 67 1024.2
20260906142519 17 53 3.2 6.4 0.00 0.00 0.00 67 1024.2
20260906142018 17 52 3.2 8.0 0.00 0.00 0.00 65 1024.3
20260906141545 17 57 3.2 8.0 0.00 0.00 0.00 64 1024.3
20260906141019 17 41 3.2 8.0 0.00 0.00 0.00 61 1024.4
20260906140517 17 85 1.6 6.4 0.00 0.00 0.00 57 1024.4
20260906140040 18 0 0.0 0.0 0.00 0.00 0.00 55 1024.3
20260906135520 17 0 0.0 0.0 0.00 0.00 0.00 56 1024.2
20260906135020 17 0 0.0 0.0 0.00 0.00 0.00 56 1024.2
20260906134542 17 0 0.0 0.0 0.00 0.00 0.00 59 1024.1
20260906134019 16 0 0.0 0.0 0.00 0.00 0.00 58 1024.0
20260906133520 16 0 0.0 0.0 0.00 0.00 0.00 59 1024.0
20260906133036 16 0 0.0 3.2 0.00 0.00 0.00 62 1023.9
20260906132520 16 0 0.0 4.8 0.00 0.00 0.00 63 1023.8
20260906132026 16 36 1.6 4.8 0.00 0.00 0.00 63 1023.8
20260906131538 15 36 1.6 6.4 0.00 0.00 0.00 63 1023.8
20260906131020 15 40 3.2 6.4 0.00 0.00 0.00 62 1023.8
20260906130519 15 46 3.2 8.0 0.00 0.00 0.00 63 1023.8
20260906130047 15 72 4.8 8.0 0.00 0.00 0.00 62 1023.7
20260906125522 15 80 4.8 8.0 0.00 0.00 0.00 61 1023.8
20260906125023 15 78 1.6 6.4 0.00 0.00 0.00 61 1023.7
20260906124538 15 0 1.6 6.4 0.00 0.00 0.00 61 1023.7
20260906124016 15 65 1.6 6.4 0.00 0.00 0.00 61 1023.7
20260906123520 15 0 3.2 6.4 0.00 0.00 0.00 60 1023.6
20260906123038 15 0 3.2 11.3 0.00 0.00 0.00 60 1023.5
20260906122521 16 30 3.2 11.3 0.00 0.00 0.00 60 1023.6
20260906122018 16 41 6.4 11.3 0.00 0.00 0.00 59 1023.6
20260906121538 16 61 3.2 6.4 0.00 0.00 0.00 59 1023.6
20260906121020 16 42 0.0 6.4 0.00 0.00 0.00 59 1023.6
20260906120520 16 60 3.2 6.4 0.00 0.00 0.00 59 1023.6
20260906120048 16 74 1.6 4.8 0.00 0.00 0.00 58 1023.6
20260906115521 16 0 0.0 0.0 0.00 0.00 0.00 58 1023.6
20260906115019 16 0 0.0 0.0 0.00 0.00 0.00 57 1023.6
20260906114541 16 0 0.0 0.0 0.00 0.00 0.00 57 1023.6
20260906114021 16 0 0.0 0.0 0.00 0.00 0.00 57 1023.6
20260906113521 16 0 0.0 0.0 0.00 0.00 0.00 56 1023.6
20260906113038 16 0 0.0 0.0 0.00 0.00 0.00 55 1023.5
20260906112520 16 0 0.0 0.0 0.00 0.00 0.00 54 1023.4
20260906112021 17 0 0.0 0.0 0.00 0.00 0.00 54 1023.4
20260906111544 17 0 0.0 0.0 0.00 0.00 0.00 54 1023.3
20260906111019 16 0 0.0 0.0 0.00 0.00 0.00 54 1023.4
20260906110520 17 0 0.0 0.0 0.00 0.00 0.00 53 1023.4
20260906110044 17 0 0.0 4.8 0.00 0.00 0.00 52 1023.4
20260906105519 17 0 0.0 6.4 0.00 0.00 0.00 52 1023.4
20260906105021 17 0 3.2 6.4 0.00 0.00 0.00 52 1023.3
20260906104545 17 89 0.0 4.8 0.00 0.00 0.00 52 1023.2
20260906104016 17 0 0.0 4.8 0.00 0.00 0.00 53 1023.2
20260906103522 17 0 0.0 6.4 0.00 0.00 0.00 54 1023.2
20260906103036 16 147 1.6 6.4 0.00 0.00 0.00 54 1023.2
20260906102521 17 136 4.8 6.4 0.00 0.00 0.00 54 1023.2
20260906102021 17 136 3.2 6.4 0.00 0.00 0.00 53 1023.2
20260906101537 16 0 0.0 4.8 0.00 0.00 0.00 54 1023.2
20260906101020 17 155 1.6 4.8 0.00 0.00 0.00 54 1023.2
20260906100520 17 155 3.2 4.8 0.00 0.00 0.00 53 1023.2
20260906100044 17 155 1.6 4.8 0.00 0.00 0.00 53 1023.2
20260906095519 17 155 1.6 4.8 0.00 0.00 0.00 53 1023.2
20260906095021 17 0 0.0 3.2 0.00 0.00 0.00 52 1023.3
20260906094605 17 0 0.0 3.2 0.00 0.00 0.00 52 1023.2
20260906094021 17 0 0.0 4.8 0.00 0.00 0.00 52 1023.0
20260906093519 17 0 1.6 4.8 0.00 0.00 0.00 51 1023.1
20260906093039 17 155 0.0 1.6 0.00 0.00 0.00 50 1023.1
20260906092520 18 0 0.0 4.8 0.00 0.00 0.00 50 1023.1
20260906092021 18 0 0.0 4.8 0.00 0.00 0.00 50 1023.1
20260906091545 18 155 3.2 4.8 0.00 0.00 0.00 50 1023.1
20260906091019 18 155 1.6 4.8 0.00 0.00 0.00 48 1023.0
20260906090521 18 0 0.0 0.0 0.00 0.00 0.00 48 1023.0
20260906090037 18 0 0.0 1.6 0.00 0.00 0.00 48 1023.0
20260906085520 18 0 0.0 1.6 0.00 0.00 0.00 48 1022.9
20260906085021 18 155 0.0 4.8 0.00 0.00 0.00 48 1022.9
20260906084540 18 0 1.6 4.8 0.00 0.00 0.00 48 1022.9
20260906084020 18 155 3.2 4.8 0.00 0.00 0.00 48 1022.8
20260906083521 18 155 3.2 6.4 0.00 0.00 0.00 49 1023.0
20260906083037 18 155 1.6 6.4 0.00 0.00 0.00 49 1023.0
20260906082519 18 147 3.2 6.4 0.00 0.00 0.00 49 1023.0
20260906082024 18 143 3.2 6.4 0.00 0.00 0.00 49 1023.0
20260906081547 18 148 4.8 6.4 0.00 0.00 0.00 49 1023.0
20260906081019 18 166 1.6 6.4 0.00 0.00 0.00 49 1023.0
20260906080523 18 166 4.8 9.7 0.00 0.00 0.00 49 1023.1
20260906080049 18 169 4.8 9.7 0.00 0.00 0.00 50 1023.2
20260906075517 18 174 4.8 8.0 0.00 0.00 0.00 50 1023.2
20260906075020 18 186 4.8 8.0 0.00 0.00 0.00 51 1023.2
20260906074538 17 172 3.2 8.0 0.00 0.00 0.00 51 1023.2
20260906074016 17 176 4.8 8.0 0.00 0.00 0.00 52 1023.2
20260906073519 17 174 4.8 8.0 0.00 0.00 0.00 53 1023.1
20260906073039 17 185 3.2 6.4 0.00 0.00 0.00 53 1023.2
20260906072521 17 170 4.8 6.4 0.00 0.00 0.00 53 1023.2
20260906072020 17 169 4.8 6.4 0.00 0.00 0.00 53 1023.2
20260906071537 18 181 3.2 4.8 0.00 0.00 0.00 52 1023.2
20260906071018 18 139 1.6 4.8 0.00 0.00 0.00 51 1023.2
20260906070524 18 0 0.0 0.0 0.00 0.00 0.00 50 1023.2
20260906070040 18 0 0.0 0.0 0.00 0.00 0.00 50 1023.2
20260906065519 18 0 0.0 0.0 0.00 0.00 0.00 50 1023.0
20260906065017 18 0 0.0 4.8 0.00 0.00 0.00 50 1023.0
20260906064538 18 0 1.6 4.8 0.00 0.00 0.00 50 1023.0
20260906064018 18 139 1.6 4.8 0.00 0.00 0.00 50 1023.1
20260906063521 18 139 1.6 4.8 0.00 0.00 0.00 50 1023.2
20260906063037 18 141 3.2 4.8 0.00 0.00 0.00 51 1023.2
20260906062522 19 165 3.2 4.8 0.00 0.00 0.00 51 1023.2
20260906062020 20 0 0.0 4.8 0.00 0.00 0.00 52 1023.2
20260906061543 20 300 0.0 4.8 0.00 0.00 0.00 49 1023.2
20260906061018 20 0 0.0 4.8 0.00 0.00 0.00 48 1023.2
20260906060521 20 313 1.6 9.7 0.00 0.00 0.00 48 1023.4
20260906060040 20 301 0.0 12.9 0.00 0.00 0.00 48 1023.5
20260906055519 20 359 8.0 12.9 0.00 0.00 0.00 47 1023.4
20260906055019 20 4 4.8 8.0 0.00 0.00 0.00 48 1023.5
20260906054537 21 325 0.0 6.4 0.00 0.00 0.00 48 1023.5
20260906054021 21 0 0.0 9.7 0.00 0.00 0.00 50 1023.5
20260906053519 21 345 3.2 11.3 0.00 0.00 0.00 48 1023.4
20260906053038 21 35 4.8 20.9 0.00 0.00 0.00 45 1023.4
20260906052518 22 339 11.3 20.9 0.00 0.00 0.00 45 1023.6
20260906052019 22 34 3.2 8.0 0.00 0.00 0.00 50 1023.2
20260906051540 22 75 3.2 8.0 0.00 0.00 0.00 50 1023.4
20260906051019 22 90 4.8 8.0 0.00 0.00 0.00 51 1023.3
20260906050519 22 94 3.2 9.7 0.00 0.00 0.00 51 1023.4
20260906050042 22 118 1.6 9.7 0.00 0.00 0.00 51 1023.4
20260906045520 22 108 3.2 6.4 0.00 0.00 0.00 51 1023.4
20260906045018 22 84 1.6 6.4 0.00 0.00 0.00 50 1023.4
20260906044544 22 92 1.6 8.0 0.00 0.00 0.00 50 1023.5
20260906044021 22 79 0.0 8.0 0.00 0.00 0.00 51 1023.5
20260906043522 22 115 4.8 8.0 0.00 0.00 0.00 50 1023.4
20260906043043 22 91 3.2 8.0 0.00 0.00 0.00 50 1023.4
20260906042551 23 122 3.2 8.0 0.00 0.00 0.00 49 1023.4
20260906042019 23 91 4.8 8.0 0.00 0.00 0.00 50 1023.5
20260906041541 23 88 4.8 8.0 0.00 0.00 0.00 49 1023.4
20260906041024 23 91 4.8 8.0 0.00 0.00 0.00 49 1023.5
20260906040523 23 91 4.8 6.4 0.00 0.00 0.00 49 1023.5
20260906040041 23 98 0.0 6.4 0.00 0.00 0.00 48 1023.5
20260906035523 23 0 0.0 6.4 0.00 0.00 0.00 47 1023.4
20260906035024 23 220 3.2 11.3 0.00 0.00 0.00 46 1023.5
20260906034543 23 174 6.4 12.9 0.00 0.00 0.00 46 1023.4
20260906034021 23 174 6.4 16.1 0.00 0.00 0.00 45 1023.4
20260906033519 23 200 9.7 16.1 0.00 0.00 0.00 39 1023.4
20260906033040 24 144 0.0 19.3 0.00 0.00 0.00 32 1023.2
20260906032524 23 144 1.6 27.4 0.00 0.00 0.00 32 1023.2
20260906032019 23 153 14.5 27.4 0.00 0.00 0.00 32 1023.5
20260906031548 22 152 19.3 27.4 0.00 0.00 0.00 35 1023.3
20260906031018 21 166 6.4 9.7 0.00 0.00 0.00 36 1022.7
20260906030520 22 124 4.8 16.1 0.00 0.00 0.00 35 1022.3
20260906030039 22 0 1.6 16.1 0.00 0.00 0.00 34 1022.3
20260906025521 22 342 11.3 16.1 0.00 0.00 0.00 34 1022.2
20260906025020 22 155 4.8 8.0 0.00 0.00 0.00 33 1021.9
20260906024542 23 160 6.4 8.0 0.00 0.00 0.00 32 1021.8
20260906024025 23 172 4.8 8.0 0.00 0.00 0.00 31 1021.7
20260906023521 24 184 3.2 6.4 0.00 0.00 0.00 30 1021.6
20260906023042 24 226 3.2 6.4 0.00 0.00 0.00 30 1021.7
20260906022521 24 130 1.6 4.8 0.00 0.00 0.00 29 1021.7
20260906022018 24 130 3.2 4.8 0.00 0.00 0.00 29 1021.7
20260906021540 23 131 3.2 4.8 0.00 0.00 0.00 30 1021.7
20260906021019 23 131 3.2 8.0 0.00 0.00 0.00 31 1021.6
20260906020520 23 137 3.2 8.0 0.00 0.00 0.00 31 1021.6
20260906020049 23 131 4.8 8.0 0.00 0.00 0.00 30 1021.5
20260906015526 24 130 4.8 8.0 0.00 0.00 0.00 29 1021.4
20260906015021 25 136 3.2 8.0 0.00 0.00 0.00 29 1021.4
20260906014548 25 134 4.8 8.0 0.00 0.00 0.00 28 1021.4
20260906014022 25 141 4.8 11.3 0.00 0.00 0.00 28 1021.3
20260906013520 25 135 4.8 11.3 0.00 0.00 0.00 27 1021.3
20260906013041 25 159 8.0 11.3 0.00 0.00 0.00 27 1021.3
20260906012520 26 150 6.4 11.3 0.00 0.00 0.00 27 1021.2
20260906012157 26 155 6.4 11.3 0.00 0.00 0.00 27 1021.2
20260906011540 27 171 6.4 16.1 0.00 0.00 0.00 26 1021.2
20260906011022 27 186 9.7 16.1 0.00 0.00 0.00 25 1021.3
20260906010520 27 208 8.0 16.1 0.00 0.00 0.00 25 1021.3
20260906010041 28 208 6.4 14.5 0.00 0.00 0.00 24 1021.3
20260906005517 28 220 6.4 16.1 0.00 0.00 0.00 24 1021.3
20260906005018 28 169 8.0 16.1 0.00 0.00 0.00 23 1021.4
20260906004646 28 229 8.0 22.5 0.00 0.00 0.00 23 1021.3
20260906004024 29 209 12.9 22.5 0.00 0.00 0.00 22 1021.4
20260906003519 29 217 9.7 16.1 0.00 0.00 0.00 22 1021.4
20260906003043 29 198 9.7 20.9 0.00 0.00 0.00 22 1021.4
20260906002521 29 226 8.0 20.9 0.00 0.00 0.00 22 1021.3
20260906002021 29 200 9.7 20.9 0.00 0.00 0.00 22 1021.3
20260906001539 29 246 12.9 20.9 0.00 0.00 0.00 23 1021.3
20260906001019 29 204 12.9 20.9 0.00 0.00 0.00 22 1021.3
20260906000519 29 188 11.3 20.9 0.00 0.00 0.00 23 1021.3
20260906000040 29 210 12.9 20.9 0.00 0.00 0.00 23 1021.2
20260905235520 29 188 11.3 20.9 0.00 0.00 0.00 23 1021.2
20260905235019 29 198 9.7 24.1 0.00 0.00 0.00 22 1021.2
20260905234536 29 200 12.9 24.1 0.00 0.00 0.00 23 1021.1
20260905234026 30 209 14.5 24.1 0.00 0.00 0.00 23 1021.2
20260905233520 30 160 12.9 24.1 0.00 0.00 0.00 23 1021.2
20260905233038 30 231 16.1 27.4 0.00 0.00 0.00 23 1021.0
20260905232521 29 178 14.5 27.4 0.00 0.00 0.00 24 1021.0
20260905232021 29 206 17.7 27.4 0.00 0.00 0.00 23 1021.1
20260905231536 29 138 17.7 25.7 0.00 0.00 0.00 24 1021.2
20260905231018 29 160 11.3 17.7 0.00 0.00 0.00 23 1021.2
20260905230521 29 115 8.0 17.7 0.00 0.00 0.00 23 1021.1
20260905230045 28 113 8.0 16.1 0.00 0.00 0.00 23 1021.1
20260905225520 28 121 6.4 11.3 0.00 0.00 0.00 22 1021.1
20260905225020 29 58 1.6 19.3 0.00 0.00 0.00 22 1021.0
20260905224537 29 110 4.8 29.0 0.00 0.00 0.00 22 1021.0
20260905224019 30 134 14.5 29.0 0.00 0.00 0.00 21 1021.0
20260905223521 30 64 11.3 19.3 0.00 0.00 0.00 22 1021.0
20260905223045 30 45 9.7 17.7 0.00 0.00 0.00 21 1021.1
20260905222521 29 83 3.2 16.1 0.00 0.00 0.00 21 1021.1
20260905222027 29 18 6.4 12.9 0.00 0.00 0.00 22 1021.1